sat.trackr.live / text

‹ back to catalog

STARLINK-11193 [DTC]

NORAD 60195 · 2024-124N

PAYLOAD ACTIVE UNKNOWN

§ Identity

Operator
Country
US
Launch date
2024-07-03
Launch site
AFETR
Launch vehicle
Mass (kg)
RCS (m²)

Purposes: comms

External: N2YO · Heavens-Above · Gunter

§ Orbital elements

Epoch: 2026-09-20T06:11:49.909920Z

Period
91.74 min
Inclination
53.1583°
Eccentricity
0.0001027
Mean motion
15.69701396 rev/d
Perigee alt
359.1 km
Apogee alt
360.4 km
Semi-major
6,737.9 km
B*
-4.5444e-6
RAAN
282.0716°
Arg perigee
76.2915°
Mean anomaly
283.8217°
Rev number
12,709

§ Raw data

STARLINK-11193 [DTC]1 60195U 24124N   26263.25821655 -.00001139  00000+0 -45444-5 0  99982 60195  53.1583 282.0716 0001027  76.2915 283.8217 15.69701396127091

JSON: /api/v1/satellites/60195 · /tle

For live sub-satellite position, see the globe view (requires WebGL).

§ Visibility from observer

Set your observer location to see the next 7 days of passes ≥ 10°. The values pass through the URL so the page stays shareable.

No JS? Fill the form by hand. The geolocation button needs JavaScript.